Location: Le Domaine
(47.0333°N, 76.5361°W)
Time: 02:37:29
(UTC-05:00)

Explorer 11/Cluster Stage 4 - Pass Details

Date: 18 November 2019
Orbit: 467 x 1259 km, 28.8° (Epoch: 07 December)

Event Time Altitude Azimuth Distance (km) Brightness Sun altitude
Rises 23:41:47 0° 245° (WSW) 3,788 - -62.3°
Reaches altitude 10° 23:45:50 10° 223° (SW) 2,982 - -62.3°
Maximum altitude 23:49:35 15° 193° (SSW) 2,755 - -62.4°
Drops below altitude 10° 23:53:31 10° 163° (SSE) 3,170 - -62.4°
Sets 23:58:06 0° 141° (SE) 4,187 - -62.3°
